KB3GVC-13 Weather Reports


time (UTC)temp
C
wind
direction
speed
KPH
gust
KPH
rain 1hr
cm
rain 24hr
cm
rain mn
cm
humidity
%
barometer
mb
20260505051643 15 243 1.6 3.2 0.00 0.00 0.00 70 1011.8
20260505051142 15 201 0.0 0.0 0.00 0.00 0.00 69 1011.8
20260505050639 15 157 1.6 3.2 0.00 0.00 0.00 69 1011.6
20260505050137 15 186 0.0 0.0 0.00 0.00 0.00 69 1011.9
20260505041607 15 123 0.0 0.0 0.00 0.00 0.00 67 1012.0
20260505041104 15 123 0.0 1.6 0.00 0.00 0.00 66 1011.8
20260505040601 15 123 0.0 3.2 0.00 0.00 0.00 65 1011.6
20260505040058 15 200 0.0 0.0 0.00 0.00 0.00 65 1011.7
20260505035555 15 200 0.0 0.0 0.00 0.00 0.00 64 1011.8
20260505035051 15 200 0.0 0.0 0.00 0.00 0.00 62 1011.7
20260505034547 15 200 0.0 0.0 0.00 0.00 0.00 61 1011.8
20260505034044 15 200 0.0 0.0 0.00 0.00 0.00 62 1011.8
20260505033542 15 200 0.0 0.0 0.00 0.00 0.00 61 1011.6
20260505033040 16 200 0.0 0.0 0.00 0.00 0.00 60 1011.7
20260505032537 16 200 0.0 0.0 0.00 0.00 0.00 59 1011.7
20260505032033 16 200 0.0 0.0 0.00 0.00 0.00 58 1011.8
20260505031531 16 200 0.0 0.0 0.00 0.00 0.00 57 1011.8
20260505031027 17 163 0.0 3.2 0.00 0.00 0.00 56 1011.7
20260505030524 17 134 0.0 3.2 0.00 0.00 0.00 55 1011.8
20260505030020 17 213 1.6 1.6 0.00 0.00 0.00 55 1011.7
20260505025516 17 157 0.0 1.6 0.00 0.00 0.00 54 1011.9
20260505025016 17 135 0.0 1.6 0.00 0.00 0.00 54 1011.8
20260505024512 17 135 1.6 3.2 0.00 0.00 0.00 53 1011.6
20260505024009 17 128 0.0 4.8 0.00 0.00 0.00 53 1011.8
20260505023506 17 131 0.0 1.6 0.00 0.00 0.00 52 1012.0
20260505023004 17 131 1.6 3.2 0.00 0.00 0.00 51 1012.0
20260505022501 17 157 3.2 4.8 0.00 0.00 0.00 51 1012.1
20260505021958 17 190 3.2 3.2 0.00 0.00 0.00 51 1012.1
20260505021454 17 133 1.6 3.2 0.00 0.00 0.00 50 1012.4
20260505020950 17 123 3.2 4.8 0.00 0.00 0.00 50 1011.7
20260505020445 17 181 0.0 3.2 0.00 0.00 0.00 50 1011.8
20260505015943 18 165 0.0 1.6 0.00 0.00 0.00 49 1012.0
20260505015440 18 197 1.6 6.4 0.00 0.00 0.00 48 1011.9
20260505014937 17 146 1.6 1.6 0.00 0.00 0.00 48 1011.8
20260505014433 18 199 0.0 0.0 0.00 0.00 0.00 49 1011.8
20260505013931 18 236 0.0 4.8 0.00 0.00 0.00 47 1011.6
20260505013428 18 199 1.6 3.2 0.00 0.00 0.00 47 1011.6
20260505012925 18 205 1.6 3.2 0.00 0.00 0.00 47 1011.7
20260505012423 18 179 1.6 4.8 0.00 0.00 0.00 47 1011.5
20260505011919 18 210 1.6 3.2 0.00 0.00 0.00 47 1011.7
20260505011416 18 157 3.2 3.2 0.00 0.00 0.00 47 1011.7
20260505010913 18 146 0.0 3.2 0.00 0.00 0.00 47 1011.5
20260505010408 18 179 1.6 3.2 0.00 0.00 0.00 46 1011.5
20260505005904 18 193 1.6 3.2 0.00 0.00 0.00 46 1011.3
20260505005401 19 152 0.0 3.2 0.00 0.00 0.00 46 1011.3
20260505004859 19 127 0.0 1.6 0.00 0.00 0.00 45 1011.3
20260505004355 19 151 1.6 6.4 0.00 0.00 0.00 44 1011.2
20260505003853 20 140 3.2 3.2 0.00 0.00 0.00 44 1011.1
20260505003350 20 184 3.2 6.4 0.00 0.00 0.00 44 1011.2
20260505002845 20 123 1.6 3.2 0.00 0.00 0.00 44 1011.1
20260505002342 20 191 4.8 12.9 0.00 0.00 0.00 43 1011.0
20260505001841 20 89 4.8 11.3 0.00 0.00 0.00 42 1011.0
20260505001338 20 156 1.6 4.8 0.00 0.00 0.00 43 1011.1
20260505000835 20 124 4.8 12.9 0.00 0.00 0.00 42 1011.3
20260505000333 20 114 1.6 4.8 0.00 0.00 0.00 41 1011.2
20260504235829 21 101 1.6 9.7 0.00 0.00 0.00 40 1011.1
20260504235326 21 165 4.8 11.3 0.00 0.00 0.00 39 1011.1
20260504234823 21 197 1.6 3.2 0.00 0.00 0.00 39 1011.0
20260504234320 21 236 1.6 3.2 0.00 0.00 0.00 40 1011.1
20260504233817 21 227 1.6 3.2 0.00 0.00 0.00 39 1010.9
20260504233313 21 157 3.2 6.4 0.00 0.00 0.00 39 1011.0
20260504232809 21 153 1.6 6.4 0.00 0.00 0.00 38 1011.0
20260504232307 22 175 6.4 6.4 0.00 0.00 0.00 38 1011.0
20260504231804 22 183 3.2 6.4 0.00 0.00 0.00 37 1011.2
20260504231300 22 194 1.6 3.2 0.00 0.00 0.00 38 1011.1
20260504230756 22 196 3.2 6.4 0.00 0.00 0.00 37 1011.1
20260504230254 22 312 1.6 4.8 0.00 0.00 0.00 37 1011.0
20260504225753 22 160 1.6 4.8 0.00 0.00 0.00 37 1011.1
20260504225249 22 214 3.2 9.7 0.00 0.00 0.00 36 1011.1
20260504224746 22 232 0.0 3.2 0.00 0.00 0.00 36 1011.0
20260504224243 22 124 3.2 11.3 0.00 0.00 0.00 36 1011.1
20260504223739 23 122 1.6 3.2 0.00 0.00 0.00 37 1011.1
20260504223235 23 147 1.6 11.3 0.00 0.00 0.00 37 1010.8
20260504222732 23 293 3.2 11.3 0.00 0.00 0.00 36 1011.0
20260504222229 23 173 4.8 6.4 0.00 0.00 0.00 35 1010.9
20260504221726 23 293 3.2 14.5 0.00 0.00 0.00 36 1011.0
20260504221218 23 195 3.2 4.8 0.00 0.00 0.00 35 1010.9
20260504220714 23 241 6.4 11.3 0.00 0.00 0.00 35 1010.9
20260504220212 23 150 3.2 14.5 0.00 0.00 0.00 36 1011.1
20260504215709 23 251 3.2 9.7 0.00 0.00 0.00 36 1011.2
20260504215206 23 168 1.6 14.5 0.00 0.00 0.00 36 1011.0
20260504214701 23 221 1.6 6.4 0.00 0.00 0.00 35 1011.2
20260504214158 23 139 3.2 12.9 0.00 0.00 0.00 35 1011.1
20260504213655 23 185 3.2 9.7 0.00 0.00 0.00 35 1011.3
20260504213151 23 282 4.8 14.5 0.00 0.00 0.00 35 1011.2
20260504212648 23 267 3.2 14.5 0.00 0.00 0.00 34 1011.3
20260504212145 23 118 6.4 12.9 0.00 0.00 0.00 34 1011.3
20260504211642 23 234 3.2 14.5 0.00 0.00 0.00 36 1011.3
20260504211138 23 178 6.4 11.3 0.00 0.00 0.00 34 1011.1
20260504210636 23 106 1.6 11.3 0.00 0.00 0.00 36 1011.3
20260504210132 23 197 9.7 11.3 0.00 0.00 0.00 34 1011.2
20260504205630 23 147 3.2 11.3 0.00 0.00 0.00 35 1011.4
20260504205127 23 207 6.4 12.9 0.00 0.00 0.00 34 1011.3
20260504204626 23 263 3.2 9.7 0.00 0.00 0.00 35 1011.3
20260504204124 23 287 6.4 14.5 0.00 0.00 0.00 35 1011.1
20260504203622 23 175 6.4 16.1 0.00 0.00 0.00 35 1011.2
20260504203120 23 161 3.2 11.3 0.00 0.00 0.00 36 1011.5
20260504202619 22 146 6.4 14.5 0.00 0.00 0.00 35 1011.3
20260504202117 23 129 6.4 9.7 0.00 0.00 0.00 35 1011.6
20260504201613 23 139 4.8 11.3 0.00 0.00 0.00 36 1011.6
20260504201111 23 259 11.3 16.1 0.00 0.00 0.00 34 1011.6
20260504200608 23 210 6.4 11.3 0.00 0.00 0.00 34 1011.6
20260504200104 23 201 4.8 12.9 0.00 0.00 0.00 34 1011.9
20260504195601 23 264 3.2 11.3 0.00 0.00 0.00 35 1011.7
20260504195057 22 268 4.8 14.5 0.00 0.00 0.00 35 1012.0
20260504194554 23 294 8.0 14.5 0.00 0.00 0.00 35 1012.2
20260504194049 22 223 6.4 20.9 0.00 0.00 0.00 35 1012.3
20260504193546 22 271 14.5 24.1 0.00 0.00 0.00 33 1012.2
20260504193045 22 146 8.0 16.1 0.00 0.00 0.00 35 1012.2
20260504192543 22 211 3.2 11.3 0.00 0.00 0.00 34 1012.4
20260504192040 22 285 6.4 17.7 0.00 0.00 0.00 33 1012.4
20260504191538 22 257 8.0 12.9 0.00 0.00 0.00 34 1012.5
20260504191034 22 284 14.5 17.7 0.00 0.00 0.00 33 1012.5
20260504190531 22 284 6.4 12.9 0.00 0.00 0.00 35 1012.8
20260504190026 22 227 4.8 11.3 0.00 0.00 0.00 36 1012.9
20260504185524 22 244 8.0 14.5 0.00 0.00 0.00 36 1012.7
20260504185020 22 199 4.8 11.3 0.00 0.00 0.00 35 1012.8
20260504184515 22 206 6.4 17.7 0.00 0.00 0.00 35 1012.7
20260504184011 22 292 4.8 24.1 0.00 0.00 0.00 37 1012.9
20260504183509 22 295 4.8 6.4 0.00 0.00 0.00 34 1012.8
20260504183007 22 294 4.8 16.1 0.00 0.00 0.00 36 1013.0
20260504182503 22 194 6.4 17.7 0.00 0.00 0.00 35 1013.1
20260504182001 22 330 3.2 11.3 0.00 0.00 0.00 36 1013.2
20260504181457 21 240 1.6 4.8 0.00 0.00 0.00 35 1013.3
20260504180956 21 184 1.6 11.3 0.00 0.00 0.00 35 1013.2
20260504180455 22 312 1.6 11.3 0.00 0.00 0.00 36 1013.5
20260504175953 22 155 3.2 12.9 0.00 0.00 0.00 36 1013.4
20260504175449 21 223 1.6 6.4 0.00 0.00 0.00 38 1013.3
20260504174947 21 182 6.4 11.3 0.00 0.00 0.00 34 1013.3
20260504174444 21 308 1.6 9.7 0.00 0.00 0.00 35 1013.4
20260504173942 21 304 4.8 17.7 0.00 0.00 0.00 34 1013.6
20260504173437 21 236 3.2 6.4 0.00 0.00 0.00 34 1013.6
20260504172936 21 242 4.8 11.3 0.00 0.00 0.00 35 1013.6
20260504172431 21 275 1.6 9.7 0.00 0.00 0.00 35 1013.7
20260504171928 21 202 4.8 12.9 0.00 0.00 0.00 34 1013.9
20260504171425 21 290 1.6 6.4 0.00 0.00 0.00 33 1014.0
20260504170922 21 207 6.4 12.9 0.00 0.00 0.00 33 1014.0
20260504170418 21 176 6.4 11.3 0.00 0.00 0.00 34 1014.1
20260504160337 20 300 8.0 22.5 0.00 0.00 0.00 34 1014.7
20260504150802 19 188 3.2 4.8 0.00 0.00 0.00 42 1015.1
20260504150259 19 120 3.2 12.9 0.00 0.00 0.00 42 1015.2
20260504141229 18 191 6.4 11.3 0.00 0.00 0.00 46 1015.5
20260504140725 17 271 1.6 11.3 0.00 0.00 0.00 49 1015.4
20260504140220 17 252 3.2 11.3 0.00 0.00 0.00 48 1015.4
20260504130649 15 155 3.2 12.9 0.00 0.00 0.00 58 1015.7
20260504130145 15 308 3.2 6.4 0.00 0.00 0.00 61 1015.8
20260504120110 12 300 1.6 6.4 0.00 0.00 0.00 77 1016.1
20260504110537 9 278 0.0 1.6 0.00 0.00 0.00 84 1016.4
20260504100454 7 197 0.0 1.6 0.00 0.00 0.00 87 1016.3
20260504081847 5 222 0.0 1.6 0.00 0.00 0.00 89 1016.5
20260504081343 5 222 0.0 0.0 0.00 0.00 0.00 88 1016.7
20260504080839 5 229 0.0 0.0 0.00 0.00 0.00 87 1016.6
20260504080336 5 229 0.0 0.0 0.00 0.00 0.00 86 1016.6
20260504070303 6 229 0.0 0.0 0.00 0.00 0.00 83 1016.6
20260504060224 5 292 0.0 0.0 0.00 0.00 0.00 83 1016.2